Location: Fond Mahaut
(18.0707°N, 63.0465°W)
Time: 20:34:08
(UTC+00:00)

CZ-4 R/B - Pass Details

Date: 08 December 2019
Orbit: 533 x 598 km, 97.7° (Epoch: 22 January)

Event Time Altitude Azimuth Distance (km) Brightness Sun altitude
Rises 23:20:21 0° 188° (S) 2,756 5.2 -24.0°
Reaches altitude 10° 23:22:42 10° 200° (SSW) 1,850 4.4 -24.5°
Maximum altitude 23:26:11 29° 260° (W) 1,040 3.3 -25.3°
Drops below altitude 10° 23:29:37 10° 321° (NW) 1,820 4.2 -26.1°
Sets 23:31:56 0° 333° (NNW) 2,704 5.0 -26.6°
